Content
SEND FEEDBACK

Daily
Averages
Monthly
Summary
United States of America

MAYO, FLORIDA


Home > North America > United States > Florida
Elevation: 75 feet     Latitude: 30 03N     Longitude: 083 10W

WEATHER
 
SELECT A DAY
Number of Records: 180,275;   Date Range: 2/27/98 - 12/18/14
 
SHARE

PRINT THIS DATA

[ ← Previous Day ]
WEATHER ALMANAC - JANUARY 23, 2013
[ Next Day → ]
[ °C ]   °F
Weather ElementAverageHighLow
Temperature47 °F66 °F (3:53 pm)30 °F (7:53 am)
Dewpoint32.6 °F41 °F (7:53 pm)26.1 °F (6:53 am)
Humidity63.1 %93 % (11:53 pm)29 % (11:53 am)
Barometer30.35 in30.43 in (9:53 am)30.30 in (3:53 pm)
Wind Speed2 mph8.1 mph (9:53 am)
Weather ElementAverage
Wind DirectionNE (47.4 °)

Weather ElementTotal
Precipitation0.02 in
Heating Degree Days17 (Base 65)
Averaged from 23 records on January 23, 2013
WEATHER CONDITIONS BREAKOUT
WIND DIRECTION BREAKOUT
WEATHER BY HOUR - JANUARY 23, 2013
[ °C ]   °F
Local TimeTemperatureDewpointHumidityBarometerVisibilityWind DirectionWind SpeedGust SpeedPrecipitationEventsConditions
1:53 AM35.1 °F30.0 °F82 %30.34 inCalm
2:53 AM33.1 °F28.0 °F82 %30.33 inCalm
3:53 AM32.0 °F28.0 °F85 %30.34 inCalm
4:53 AM32.0 °F28.0 °F85 %30.33 inCalm
5:53 AM30.9 °F28.0 °F89 %30.34 inCalm
6:53 AM30.9 °F26.1 °F82 %30.37 inCalm
7:53 AM30.0 °F28.0 °F92 %30.39 inCalm
8:53 AM42.1 °F32.0 °F67 %30.41 inNorth (10°)3.5 mph
9:53 AM48.0 °F27.0 °F44 %30.43 inNE (50°)8.1 mph
10:53 AM54.0 °F27.0 °F35 %30.43 inVariable4.6 mph
11:53 AM59.0 °F27.0 °F29 %30.41 inNorth (10°)6.9 mph0.01 in
12:53 PM63.0 °F32.0 °F31 %30.37 inNorth (350°)8.1 mph0.01 in
1:53 PM63.0 °F33.1 °F33 %30.33 inNW (320°)6.9 mph
2:53 PM64.9 °F34.0 °F32 %30.31 inCalm
3:53 PM66.0 °F35.1 °F32 %30.30 inNNE (30°)3.5 mph
4:53 PM64.9 °F35.1 °F33 %30.31 inNW (320°)3.5 mph
5:53 PM60.1 °F37.0 °F42 %30.31 inCalm
6:53 PM53.1 °F39.0 °F59 %30.32 inCalm
7:53 PM50.0 °F41.0 °F71 %30.30 inCalm
8:53 PM45.0 °F39.9 °F82 %30.32 inCalm
9:53 PM44.1 °F39.0 °F82 %30.33 inCalm
10:53 PM41.0 °F37.9 °F89 %30.34 inCalm
11:53 PM39.9 °F37.9 °F93 %30.31 inCalm
Hourly data recorded from K40J, located miles away from Mayo, Florida







STORIES FROM OUR PARTNERS